Regional Weather Roundup
Issued by NWS Upton, NY

Current Version | Previous Version | Graphics & Text | Print | Product List | Glossary Off
Versions: 1 2 3 4 5 6 7 8 9 10 11 12 13 14 15 16 17 18 19 20 21 22 23 24 25 26 27

000
ASUS41 KOKX 200308
RWROKX

REGIONAL WEATHER ROUNDUP
NATIONAL WEATHER SERVICE NEW YORK NY
1100 PM EDT TUE SEP 19 2017

NOTE: "FAIR" INDICATES FEW OR NO CLOUDS BELOW 12,000 FEET WITH NO
SIGNIFICANT WEATHER AND/OR OBSTRUCTIONS TO VISIBILITY.

NYZ071-072-176-178-NJZ106-104-200400-
NEW YORK CITY METRO AREA

CITY           SKY/WX    TMP DP  RH WIND       PRES   REMARKS
Central Park   CLOUDY    71  65  81 NE9       29.90F
Bronx Bot Gard   N/A     70  63  78 NE5       29.88F
LaGuardia APRT CLOUDY    72  66  81 N13G21    29.86F
Kennedy INTL   CLOUDY    72  65  78 N16       29.85F
Breezy Point     N/A     72 N/A N/A N18G26      N/A
Newark/Liberty CLOUDY    72  65  78 N18       29.87F
Teterboro      CLOUDY    73  64  73 N14G20    29.86F
$$

NYZ177-179-078>081-200400-
LONG ISLAND NEW YORK

CITY           SKY/WX    TMP DP  RH WIND       PRES   REMARKS
Jones Beach      N/A     70 N/A N/A N26G32      N/A
Matinecock PT    N/A     72 N/A N/A NE25G32     N/A
Farmingdale    CLOUDY    70  65  84 NE21G30   29.84F
MacArthur/ISP  LGT RAIN  69  67  93 N18G28    29.83F
Shirley        LGT RAIN  71  68  90 N10G21    29.84S
Mt Sinai Harb    N/A    N/A N/A N/A N21G29      N/A
Westhampton    LGT RAIN  68  65  90 NE22G29   29.83S
East Hampton   CLOUDY    67  65  93 N18G25    29.83S
Montauk          N/A     68  67  96 NE14G24   29.84F
$$

NYZ052-065-067-200400-
HUDSON VALLEY

CITY           SKY/WX    TMP DP  RH WIND       PRES   REMARKS
White Plains   MOCLDY    70  64  81 N13G21    29.88F
Larchmont Harb   N/A     72 N/A N/A N17G23      N/A
Croton On Huds   N/A     72 N/A N/A N3G10       N/A
Newburgh       MOCLDY    72  64  78 NE12      29.96S
Montgomery     CLOUDY    72  62  71 NE13      29.94F
Poughkeepsie   CLOUDY    70  63  78 N5        29.93F
Albany         CLOUDY    66  61  84 N5        30.02R
$$

NJZ001-105-106-008-010-013-015-019>022-104-200400-
NEW JERSEY

CITY           SKY/WX    TMP DP  RH WIND       PRES   REMARKS
Newark/Liberty CLOUDY    72  65  78 N18       29.87F
Teterboro      CLOUDY    73  64  73 N14G20    29.86F
Caldwell       CLOUDY    71  66  84 NE3       29.90F
Somerville     NOT AVBL
Linden         CLOUDY    73  64  73 NE9G20    29.87F
Perth Amboy      N/A     72 N/A N/A N15G21      N/A
Sussex         CLOUDY    72  62  71 NE8       29.93F
Andover          N/A     68  66  93 CALM      29.93F
Trenton        CLOUDY    70  66  87 N13G20    29.87F
Millville      CLOUDY    72  68  87 N13       29.84S
Atlantic City  CLOUDY    69  68  96 N14       29.81F
Wrightstown    MOCLDY    68  66  94 N13       29.82F
Toms River     CLOUDY    69  66  90 N12       29.83F
Belmar         CLOUDY    70  66  87 N15G21    29.85S
$$

PAZ047>061-062-071-200400-
EASTERN PENNSYLVANIA

CITY           SKY/WX    TMP DP  RH WIND       PRES   REMARKS
Philadelphia   CLOUDY    72  65  78 N14       29.87F
Allentown      CLOUDY    70  64  81 CALM      29.93F
Scranton       MOCLDY    69  61  75 CALM      29.98S
$$

CTZ002-004>006-009-010-012-RIZ004-006-007-MAZ004-011-015-200400-
SOUTHERN NEW ENGLAND
 IN CT

CITY           SKY/WX    TMP DP  RH WIND       PRES   REMARKS
Bradley INTL   CLOUDY    69  65  86 N16G23    29.94F
Hartford       MOCLDY    70  66  87 N12G23    29.92F
Danbury        MOCLDY    70  65  84 NE8       29.92F
Wtrbury/Oxford CLOUDY    67  64  90 NE16G25   29.92F
Norwalk Harbor   N/A     70 N/A N/A N18G25      N/A
Bridgeport     CLOUDY    72  65  78 NE22G28   29.87S
Meriden        CLOUDY    69  64  84 N12G20    29.91F
New Haven      PTCLDY    70  64  81 N17       29.87F
Chester        CLOUDY    70  64  83 NE12G20   29.89F
Groton         LGT RAIN  69  65  86 NE18G28   29.85F
Wilimantic     CLOUDY    70  65  84 NE14G24   29.92F

 IN RI

CITY           SKY/WX    TMP DP  RH WIND       PRES   REMARKS
Providence     LGT RAIN  66  65  96 NE18G26   29.93F
Block Island   LGT RAIN  66  65  96 NE22G30   29.83F FOG
Westerly       LGT RAIN  69  66  90 N12G24    29.87F FOG
 IN MA

CITY           SKY/WX    TMP DP  RH WIND       PRES   REMARKS
Boston         CLOUDY    63  63 100 N15       29.99F FOG
Worcester      FOG       63  62  97 NE13G22   29.99F VSB 1/4
Westfield      CLOUDY    70  65  84 N13       29.96F
Provincetown   CLOUDY    64  63  96 NE12      29.94F FOG
Nantucket      CLOUDY    66  66 100 NE22G30   29.84F FOG
$$

ANZ330-335-338-340-345-350-353-355-200400-
COASTAL MARINE OBSERVATIONS


STATION/POSITION TIME  SKY/WX   TEMP    WIND        PRES    VSBY  WAVE
                                AIR SEA DIR/SP/G                  HT/PER
                 (UTC)          (F)     (DEG/KT/KT) (MB)    (MI)  (FT/S)
NY HARB ENTRANCE 0150            72 70   20/ 25/ 33 1008.5          9/12
20 S FIRE ISLAND 0150            70 68   30/ 27/ 33 1007.6         13/14
GREAT SOUTH BAY  0230            70 72   30/ 19/ 25   N/A
23 SSW MONTAUK P 0150            67 67              1008.3         13/12
15 E BARNEGAT LI 0230               70                N/A          12/ 9
HUDSON CANYON    0150            69 69   30/ 29/ 37 1002.4         18/12
KINGS POINT      0224            71 71   60/ 11/ 17 1012.1
EXECUTION ROCKS  0245            72      40/ 17/ 23   N/A
WESTERN LI SOUND NOT AVBL
CENTRAL LI SOUND 0230            71      40/ 19/ 27   N/A           3
EASTERN LI SOUND NOT AVBL
ROBBINS REEF     0236            72      10/ 19/ 25 1011.7
$$


>>>>>>>>>>>>>>>>>>>>>>>>>>>> KEY <<<<<<<<<<<<<<<<<<<<<<<<<<<
>                                                          <
>     SKY/WX - Sky Condition/Present Weather               <
>     TMP    - Temperature in Fahrenheit                   <
>     DP     - Dew Point in Fahrenheit                     <
>     RH     - Relative Humidity in Percent                <
>     WIND   - Direction (from) and Speed in MPH           <
>     PRES   - Mean Sea Level Pressure (inches of Hg)      <
>     WCI    - Wind Chill Index                            <
>     VSB    - VISIBILITY IN MILES                         <
>     HX     - HEAT INDEX                                  <
>     TC     - TEMPERATURE IN CELSIUS                      <
>     VRB    - VARIABLE WIND DIRECTION                     <
>                                                          <
>>>>>>>>>>>>>>>>>>>>>>>>>>>> KEY <<<<<<<<<<<<<<<<<<<<<<<<<<<




USA.gov is the U.S. government's official web portal to all federal, state and local government web resources and services.